Погода в Садовом

Россия / Свердловская область     56°57′20″N   60°40′38″E
темп.,
°C
ветер,
м/с
пор.,
м/с
влажн.,
%
обл.,
%
осадки,
мм/ч
давл.,
гПа
погр.,
м
20 июня, вс
вс2023:00+14юз31098100 2.5 1010317
02:00+15з4139725 0.6 1007449
05:00+16зсз5149288 0.9 1008675
08:00+17сз714526 0.0 10091374
11:00+19сз815285 0.0 10101895
14:00+20сз916240 0.0 10112435
17:00+20сз715280 0.0 10132530
20:00+16ссз713345 0.0 10152099
21 июня, пн
пн2123:00+11ссз4124718 0.0 1018573
02:00+9ссз4125841 0.0 1019487
05:00+7ссз412641 0.0 1021409
08:00+12с59465 0.0 10231007
11:00+16с57329 0.0 10221506
14:00+19ссз462687 0.0 10221816
17:00+21ссз252599 0.0 10201869
20:00+17св1144100 0.0 101918
22 июня, вт
вт2223:00+10вюв2586100 0.8 1021116
02:00+10ю2689100 0.1 1019157
05:00+10юз2289100 0.1 101862
08:00+16сз238271 0.0 1017327
11:00+20ссз3463100 0.0 1016918
14:00+24с255035 0.0 10161472
17:00+23ссв3453100 0.0 10161106
20:00+19всв2469100 0.0 1016102
23 июня, ср
ср2323:00+17в2768100 0.0 1017266
02:00+14в3678100 0.0 1018212
05:00+11всв2797100 1.1 1020293
08:00+11ююв1393100 0.7 1020165
11:00+13юв238198 0.8 1021474
14:00+16юв335595 0.0 1020947
17:00+19юв124217 0.0 10201274
20:00+17ююз11585 0.0 101922
24 июня, чт
чт2423:00+11ю11722 0.0 102010
02:00+9юз22845 0.0 102125
05:00+10з22826 0.0 102121
08:00+17всв12564 0.0 1021422
11:00+22ссз03384 0.0 10212079
14:00+23св123390 0.0 10202387
17:00+25сз133023 0.0 10192564
20:00+21з22484 0.0 101932